Flag for Austria Weather past 2 weeks in Stockerau, Lower Austria, Austria

55 °F

Broken clouds.

Feels Like: 53 °F
Forecast: 42 / 55 °F
Wind: 8 mph from West

Location: Tulln Airport

Current Time: Oct 9, 2015 at 10:58:05 AM

Latest Report: Oct 9, 2015 at 9:50 AM

Visibility: 6 mi

Pressure: 30.09 "Hg

Humidity: 94%

Dew point: 54 °F

Location of StockerauLocation

Historic Weather in Stockerau — Graph


Stockerau temperature yesterday

Maximum temperature yesterday: 55 °F (at 6:50 AM)
Minimum temperature yesterday: 54 °F (at 8:50 AM)
Average temperature yesterday: 55 °F

Past Weeks' High & Low Weather Summary

High72 °F (Oct 3, 4:50 PM)100% (Sep 25, 5:50 PM)30.51 "Hg (Sep 25, 5:50 PM)
Low39 °F (Sep 29, 6:50 AM)37% (Sep 28, 1:50 PM)29.80 "Hg (Oct 6, 3:50 PM)
Average57 °F75%30.19 "Hg
* Reported Sep 24 9:50 AM — Oct 9 9:20 AM, Stockerau, Weather by CustomWeather, © 2015

Note: Actual official high and low records may vary slightly from our data, if they occured in-between our weather recording intervals... More about our weather records


Stockerau weather history for previous 24 hours

Time TempWeatherWind HumidityBarometerVisibility
9:20 AM
Fri, Oct 9
55 °FBroken clouds.7 mph94%30.12 "Hg6 mi
8:50 AM55 °FBroken clouds.8 mph94%30.09 "Hg6 mi
7:50 AM55 °FPassing clouds.10 mph94%30.09 "Hg5 mi
6:50 AM54 °FPassing clouds.7 mph100%30.09 "Hg4 mi
5:50 AM54 °FMostly cloudy.7 mph100%30.09 "Hg6 mi
10:50 PM
Thu, Oct 8
55 °FLight rain. Mostly cloudy.10 mph100%30.09 "Hg4 mi
9:50 PM55 °FLight rain. Mostly cloudy.14 mph100%30.09 "Hg4 mi
8:50 PM55 °FLight rain. Mostly cloudy.14 mph94%30.07 "Hg4 mi
7:50 PM55 °FLight rain. Mostly cloudy.13 mph94%30.07 "Hg4 mi
6:50 PM55 °FLight rain. Overcast.14 mph94%30.07 "Hg4 mi
5:50 PM55 °FLight rain. Overcast.15 mph94%30.07 "Hg4 mi
4:50 PM55 °FLight rain. More clouds than sun.15 mph100%30.07 "Hg4 mi
3:50 PM55 °FLight rain. More clouds than sun.15 mph100%30.04 "Hg4 mi
2:50 PM55 °FLight rain. More clouds than sun.14 mph100%30.04 "Hg4 mi
1:50 PM55 °FLight rain. More clouds than sun.16 mph100%30.04 "Hg4 mi
12:50 PM55 °FLight rain. More clouds than sun.16 mph100%30.04 "Hg4 mi
11:50 AM55 °FLight rain. More clouds than sun.15 mph100%30.04 "Hg4 mi
10:50 AM55 °FRain. Fog.9 mph100%30.04 "Hg2 mi
10:20 AM54 °FLight rain. Fog.6 mph100%30.04 "Hg2 mi
Weather by CustomWeather, © 2015

See weather overviewHow to use our weather pages